Time,TemperatureF,DewpointF,PressureIn,WindDirection,WindDirectionDegrees,WindSpeedMPH,WindSpeedGustMPH,Humidity,HourlyPrecipIn,Conditions,Clouds,dailyrainin,SolarRadiationWatts/m^2,SoftwareType,DateUTC
2013-03-02 00:01:00,45.0,25.0,-100.00,NNE,14,8.0,14.0,46,0.00,,,0.00,0.000000,,2013-03-02 06:01:00,
2013-03-02 00:11:00,45.0,25.0,-100.00,NNE,14,8.0,14.0,46,0.00,,,0.00,0.000000,,2013-03-02 06:11:00,
2013-03-02 00:21:00,45.0,25.0,-100.00,NNE,14,8.0,14.0,46,0.00,,,0.00,0.000000,,2013-03-02 06:21:00,
2013-03-02 00:31:00,45.0,25.0,-100.00,NNE,14,8.0,14.0,46,0.00,,,0.00,0.000000,,2013-03-02 06:31:00,
2013-03-02 00:52:00,43.0,25.0,-100.00,North,11,9.0,14.0,49,0.00,,,0.00,0.000000,,2013-03-02 06:52:00,
2013-03-02 01:01:00,43.0,25.0,-100.00,North,11,9.0,14.0,49,0.00,,,0.00,0.000000,,2013-03-02 07:01:00,
2013-03-02 01:11:00,43.0,25.0,-100.00,North,11,9.0,14.0,49,0.00,,,0.00,0.000000,,2013-03-02 07:11:00,
2013-03-02 01:21:00,43.0,25.0,-100.00,North,11,9.0,14.0,49,0.00,,,0.00,0.000000,,2013-03-02 07:21:00,
2013-03-02 01:32:00,43.0,25.0,-100.00,North,11,9.0,14.0,49,0.00,,,0.00,0.000000,,2013-03-02 07:32:00,
2013-03-02 01:52:00,41.0,26.0,-100.00,NNW,333,8.0,12.0,54,0.00,,,0.00,0.000000,,2013-03-02 07:52:00,
2013-03-02 02:01:00,41.0,26.0,-100.00,NNW,333,8.0,12.0,54,0.00,,,0.00,0.000000,,2013-03-02 08:01:00,
2013-03-02 02:11:00,41.0,26.0,-100.00,NNW,333,8.0,12.0,54,0.00,,,0.00,0.000000,,2013-03-02 08:11:00,
2013-03-02 02:21:00,41.0,26.0,-100.00,NNW,333,8.0,12.0,54,0.00,,,0.00,0.000000,,2013-03-02 08:21:00,
2013-03-02 02:32:00,41.0,26.0,-100.00,NNW,333,8.0,12.0,54,0.00,,,0.00,0.000000,,2013-03-02 08:32:00,
2013-03-02 02:52:00,40.0,26.0,-100.00,NNW,341,8.0,12.0,57,0.00,,,0.00,0.000000,,2013-03-02 08:52:00,
2013-03-02 03:02:00,40.0,26.0,-100.00,NNW,341,8.0,12.0,57,0.00,,,0.00,0.000000,,2013-03-02 09:02:00,
2013-03-02 03:11:00,40.0,26.0,-100.00,NNW,341,8.0,12.0,57,0.00,,,0.00,0.000000,,2013-03-02 09:11:00,
2013-03-02 03:21:00,40.0,26.0,-100.00,NNW,341,8.0,12.0,57,0.00,,,0.00,0.000000,,2013-03-02 09:21:00,
2013-03-02 03:32:00,40.0,26.0,-100.00,NNW,341,8.0,12.0,57,0.00,,,0.00,0.000000,,2013-03-02 09:32:00,
2013-03-02 03:52:00,40.0,27.0,-100.00,North,351,10.0,13.0,59,0.00,,,0.00,0.000000,,2013-03-02 09:52:00,
2013-03-02 04:01:00,40.0,27.0,-100.00,North,351,10.0,13.0,59,0.00,,,0.00,0.000000,,2013-03-02 10:01:00,
2013-03-02 04:16:00,40.0,27.0,-100.00,North,351,10.0,13.0,59,0.00,,,0.00,0.000000,,2013-03-02 10:16:00,
2013-03-02 04:22:00,40.0,27.0,-100.00,North,351,10.0,13.0,59,0.00,,,0.00,0.000000,,2013-03-02 10:22:00,
2013-03-02 04:32:00,40.0,27.0,-100.00,North,351,10.0,13.0,59,0.00,,,0.00,0.000000,,2013-03-02 10:32:00,
2013-03-02 04:52:00,40.0,27.0,-100.00,NNW,340,11.0,15.0,59,0.00,,,0.00,0.000000,,2013-03-02 10:52:00,
2013-03-02 05:01:00,40.0,27.0,-100.00,NNW,340,11.0,15.0,59,0.00,,,0.00,0.000000,,2013-03-02 11:01:00,
2013-03-02 05:11:00,40.0,27.0,-100.00,NNW,340,11.0,15.0,59,0.00,,,0.00,0.000000,,2013-03-02 11:11:00,
2013-03-02 05:21:00,40.0,27.0,-100.00,NNW,340,11.0,15.0,59,0.00,,,0.00,0.000000,,2013-03-02 11:21:00,
2013-03-02 05:32:00,40.0,27.0,-100.00,NNW,340,11.0,15.0,59,0.00,,,0.00,0.000000,,2013-03-02 11:32:00,
2013-03-02 05:52:00,38.0,26.0,-100.00,North,0,12.0,18.0,61,0.00,,,0.00,0.000000,,2013-03-02 11:52:00,
2013-03-02 06:02:00,38.0,26.0,-100.00,North,0,12.0,18.0,61,0.00,,,0.00,0.000000,,2013-03-02 12:02:00,
2013-03-02 06:11:00,38.0,26.0,-100.00,North,0,12.0,18.0,61,0.00,,,0.00,0.000000,,2013-03-02 12:11:00,
2013-03-02 06:21:00,38.0,26.0,-100.00,North,0,12.0,18.0,61,0.00,,,0.00,0.000000,,2013-03-02 12:21:00,
2013-03-02 06:33:00,38.0,26.0,-100.00,North,0,12.0,18.0,61,0.00,,,0.00,0.000000,,2013-03-02 12:33:00,
2013-03-02 07:01:00,35.0,25.0,-100.00,North,352,9.0,18.0,67,0.00,,,0.00,0.000000,,2013-03-02 13:01:00,
2013-03-02 07:11:00,35.0,25.0,-100.00,North,352,9.0,18.0,67,0.00,,,0.00,0.000000,,2013-03-02 13:11:00,
2013-03-02 07:22:00,35.0,25.0,-100.00,North,352,9.0,18.0,67,0.00,,,0.00,0.000000,,2013-03-02 13:22:00,
2013-03-02 07:32:00,35.0,25.0,-100.00,North,352,9.0,18.0,67,0.00,,,0.00,0.000000,,2013-03-02 13:32:00,
2013-03-02 08:01:00,35.0,26.0,-100.00,North,1,12.0,16.0,68,0.00,,,0.00,26.000000,,2013-03-02 14:01:00,
2013-03-02 08:11:00,35.0,26.0,-100.00,North,1,12.0,16.0,68,0.00,,,0.00,26.000000,,2013-03-02 14:11:00,
2013-03-02 08:21:00,35.0,26.0,-100.00,North,1,12.0,16.0,68,0.00,,,0.00,26.000000,,2013-03-02 14:21:00,
2013-03-02 08:32:00,35.0,26.0,-100.00,North,1,12.0,16.0,68,0.00,,,0.00,26.000000,,2013-03-02 14:32:00,
2013-03-02 08:52:00,38.0,27.0,-100.00,North,4,13.0,21.0,63,0.00,,,0.00,197.000000,,2013-03-02 14:52:00,
2013-03-02 09:02:00,38.0,27.0,-100.00,North,4,13.0,21.0,63,0.00,,,0.00,197.000000,,2013-03-02 15:02:00,
2013-03-02 09:11:00,38.0,27.0,-100.00,North,4,13.0,21.0,63,0.00,,,0.00,197.000000,,2013-03-02 15:11:00,
2013-03-02 09:21:00,38.0,27.0,-100.00,North,4,13.0,21.0,63,0.00,,,0.00,197.000000,,2013-03-02 15:21:00,
2013-03-02 09:32:00,38.0,27.0,-100.00,North,4,13.0,21.0,63,0.00,,,0.00,197.000000,,2013-03-02 15:32:00,
2013-03-02 10:02:00,42.0,25.0,-100.00,North,355,14.0,21.0,50,0.00,,,0.00,403.000000,,2013-03-02 16:02:00,
2013-03-02 10:11:00,42.0,25.0,-100.00,North,355,14.0,21.0,50,0.00,,,0.00,403.000000,,2013-03-02 16:11:00,
2013-03-02 10:21:00,42.0,25.0,-100.00,North,355,14.0,21.0,50,0.00,,,0.00,403.000000,,2013-03-02 16:21:00,
2013-03-02 10:32:00,42.0,25.0,-100.00,North,355,14.0,21.0,50,0.00,,,0.00,403.000000,,2013-03-02 16:32:00,
2013-03-02 10:52:00,47.0,23.0,-100.00,North,350,14.0,25.0,38,0.00,,,0.00,583.000000,,2013-03-02 16:52:00,
2013-03-02 11:01:00,47.0,23.0,-100.00,North,350,14.0,25.0,38,0.00,,,0.00,583.000000,,2013-03-02 17:01:00,
2013-03-02 11:11:00,47.0,23.0,-100.00,North,350,14.0,25.0,38,0.00,,,0.00,583.000000,,2013-03-02 17:11:00,
2013-03-02 11:21:00,47.0,23.0,-100.00,North,350,14.0,25.0,38,0.00,,,0.00,583.000000,,2013-03-02 17:21:00,
2013-03-02 11:32:00,47.0,23.0,-100.00,North,350,14.0,25.0,38,0.00,,,0.00,583.000000,,2013-03-02 17:32:00,
2013-03-02 11:52:00,51.0,22.0,-100.00,NNW,346,13.0,25.0,32,0.00,,,0.00,718.000000,,2013-03-02 17:52:00,
2013-03-02 12:02:00,51.0,22.0,-100.00,NNW,346,13.0,25.0,32,0.00,,,0.00,718.000000,,2013-03-02 18:02:00,
2013-03-02 12:11:00,51.0,22.0,-100.00,NNW,346,13.0,25.0,32,0.00,,,0.00,718.000000,,2013-03-02 18:11:00,
2013-03-02 12:22:00,51.0,22.0,-100.00,NNW,346,13.0,25.0,32,0.00,,,0.00,718.000000,,2013-03-02 18:22:00,
2013-03-02 12:32:00,51.0,22.0,-100.00,NNW,346,13.0,25.0,32,0.00,,,0.00,718.000000,,2013-03-02 18:32:00,
2013-03-02 12:52:00,53.0,19.0,-100.00,NNW,336,16.0,25.0,26,0.00,,,0.00,791.000000,,2013-03-02 18:52:00,
2013-03-02 13:01:00,53.0,19.0,-100.00,NNW,336,16.0,25.0,26,0.00,,,0.00,791.000000,,2013-03-02 19:01:00,
2013-03-02 13:11:00,53.0,19.0,-100.00,NNW,336,16.0,25.0,26,0.00,,,0.00,791.000000,,2013-03-02 19:11:00,
2013-03-02 13:22:00,53.0,19.0,-100.00,NNW,336,16.0,25.0,26,0.00,,,0.00,791.000000,,2013-03-02 19:22:00,
2013-03-02 13:32:00,53.0,19.0,-100.00,NNW,336,16.0,25.0,26,0.00,,,0.00,791.000000,,2013-03-02 19:32:00,
2013-03-02 14:01:00,56.0,21.0,-100.00,NNW,343,14.0,26.0,25,0.00,,,0.00,800.000000,,2013-03-02 20:01:00,
2013-03-02 14:11:00,56.0,21.0,-100.00,NNW,343,14.0,26.0,25,0.00,,,0.00,800.000000,,2013-03-02 20:11:00,
2013-03-02 14:22:00,56.0,21.0,-100.00,NNW,343,14.0,26.0,25,0.00,,,0.00,800.000000,,2013-03-02 20:22:00,
2013-03-02 14:32:00,56.0,21.0,-100.00,NNW,343,14.0,26.0,25,0.00,,,0.00,800.000000,,2013-03-02 20:32:00,
2013-03-02 15:02:00,57.0,21.0,-100.00,NW,326,16.0,23.0,24,0.00,,,0.00,736.000000,,2013-03-02 21:02:00,
2013-03-02 15:11:00,57.0,21.0,-100.00,NW,326,16.0,23.0,24,0.00,,,0.00,736.000000,,2013-03-02 21:11:00,
2013-03-02 15:22:00,57.0,21.0,-100.00,NW,326,16.0,23.0,24,0.00,,,0.00,736.000000,,2013-03-02 21:22:00,
2013-03-02 15:32:00,57.0,21.0,-100.00,NW,326,16.0,23.0,24,0.00,,,0.00,736.000000,,2013-03-02 21:32:00,
2013-03-02 15:52:00,60.0,23.0,-100.00,NNW,344,13.0,24.0,24,0.00,,,0.00,621.000000,,2013-03-02 21:52:00,
2013-03-02 16:02:00,60.0,23.0,-100.00,NNW,344,13.0,24.0,24,0.00,,,0.00,621.000000,,2013-03-02 22:02:00,
2013-03-02 16:11:00,60.0,23.0,-100.00,NNW,344,13.0,24.0,24,0.00,,,0.00,621.000000,,2013-03-02 22:11:00,
2013-03-02 16:22:00,60.0,23.0,-100.00,NNW,344,13.0,24.0,24,0.00,,,0.00,621.000000,,2013-03-02 22:22:00,
2013-03-02 16:32:00,60.0,23.0,-100.00,NNW,344,13.0,24.0,24,0.00,,,0.00,621.000000,,2013-03-02 22:32:00,
2013-03-02 16:52:00,60.0,24.0,-100.00,NW,317,11.0,22.0,25,0.00,,,0.00,450.000000,,2013-03-02 22:52:00,
2013-03-02 17:01:00,60.0,24.0,-100.00,NW,317,11.0,22.0,25,0.00,,,0.00,450.000000,,2013-03-02 23:01:00,
2013-03-02 17:11:00,60.0,24.0,-100.00,NW,317,11.0,22.0,25,0.00,,,0.00,450.000000,,2013-03-02 23:11:00,
2013-03-02 17:21:00,60.0,24.0,-100.00,NW,317,11.0,22.0,25,0.00,,,0.00,450.000000,,2013-03-02 23:21:00,
2013-03-02 17:32:00,60.0,24.0,-100.00,NW,317,11.0,22.0,25,0.00,,,0.00,450.000000,,2013-03-02 23:32:00,
2013-03-02 17:52:00,60.0,25.0,-100.00,NW,312,9.0,19.0,26,0.00,,,0.00,251.000000,,2013-03-02 23:52:00,
2013-03-02 18:02:00,60.0,25.0,-100.00,NW,312,9.0,19.0,26,0.00,,,0.00,251.000000,,2013-03-03 00:02:00,
2013-03-02 18:11:00,60.0,25.0,-100.00,NW,312,9.0,19.0,26,0.00,,,0.00,251.000000,,2013-03-03 00:11:00,
2013-03-02 18:22:00,60.0,25.0,-100.00,NW,312,9.0,19.0,26,0.00,,,0.00,251.000000,,2013-03-03 00:22:00,
2013-03-02 18:32:00,60.0,25.0,-100.00,NW,312,9.0,19.0,26,0.00,,,0.00,251.000000,,2013-03-03 00:32:00,
2013-03-02 19:01:00,56.0,25.0,-100.00,NW,312,5.0,14.0,30,0.00,,,0.00,67.000000,,2013-03-03 01:01:00,
2013-03-02 19:11:00,56.0,25.0,-100.00,NW,312,5.0,14.0,30,0.00,,,0.00,67.000000,,2013-03-03 01:11:00,
2013-03-02 19:21:00,56.0,25.0,-100.00,NW,312,5.0,14.0,30,0.00,,,0.00,67.000000,,2013-03-03 01:21:00,
2013-03-02 19:32:00,56.0,25.0,-100.00,NW,312,5.0,14.0,30,0.00,,,0.00,67.000000,,2013-03-03 01:32:00,
2013-03-02 20:01:00,54.0,25.0,-100.00,NNE,15,4.0,7.0,32,0.00,,,0.00,0.000000,,2013-03-03 02:01:00,
2013-03-02 20:11:00,54.0,25.0,-100.00,NNE,15,4.0,7.0,32,0.00,,,0.00,0.000000,,2013-03-03 02:11:00,
2013-03-02 20:21:00,54.0,25.0,-100.00,NNE,15,4.0,7.0,32,0.00,,,0.00,0.000000,,2013-03-03 02:21:00,
2013-03-02 20:32:00,54.0,25.0,-100.00,NNE,15,4.0,7.0,32,0.00,,,0.00,0.000000,,2013-03-03 02:32:00,
2013-03-02 20:52:00,53.0,25.0,-100.00,NE,40,3.0,4.0,33,0.00,,,0.00,0.000000,,2013-03-03 02:52:00,
2013-03-02 21:01:00,53.0,25.0,-100.00,NE,40,3.0,4.0,33,0.00,,,0.00,0.000000,,2013-03-03 03:01:00,
2013-03-02 21:11:00,53.0,25.0,-100.00,NE,40,3.0,4.0,33,0.00,,,0.00,0.000000,,2013-03-03 03:11:00,
2013-03-02 21:21:00,53.0,25.0,-100.00,NE,40,3.0,4.0,33,0.00,,,0.00,0.000000,,2013-03-03 03:21:00,
2013-03-02 21:31:00,53.0,25.0,-100.00,NE,40,3.0,4.0,33,0.00,,,0.00,0.000000,,2013-03-03 03:31:00,
2013-03-02 21:52:00,51.0,25.0,-100.00,East,92,3.0,4.0,36,0.00,,,0.00,0.000000,,2013-03-03 03:52:00,
2013-03-02 22:01:00,51.0,25.0,-100.00,East,92,3.0,4.0,36,0.00,,,0.00,0.000000,,2013-03-03 04:01:00,
2013-03-02 22:11:00,51.0,25.0,-100.00,East,92,3.0,4.0,36,0.00,,,0.00,0.000000,,2013-03-03 04:11:00,
2013-03-02 22:21:00,51.0,25.0,-100.00,East,92,3.0,4.0,36,0.00,,,0.00,0.000000,,2013-03-03 04:21:00,
2013-03-02 22:32:00,51.0,25.0,-100.00,East,92,3.0,4.0,36,0.00,,,0.00,0.000000,,2013-03-03 04:32:00,
2013-03-02 23:02:00,49.0,25.0,-100.00,ESE,123,3.0,7.0,39,0.00,,,0.00,0.000000,,2013-03-03 05:02:00,
2013-03-02 23:11:00,49.0,25.0,-100.00,ESE,123,3.0,7.0,39,0.00,,,0.00,0.000000,,2013-03-03 05:11:00,
2013-03-02 23:22:00,49.0,25.0,-100.00,ESE,123,3.0,7.0,39,0.00,,,0.00,0.000000,,2013-03-03 05:22:00,
2013-03-02 23:32:00,49.0,25.0,-100.00,ESE,123,3.0,7.0,39,0.00,,,0.00,0.000000,,2013-03-03 05:32:00,